TimeMDT,TemperatureF,Dew PointF,Humidity,Sea Level PressureIn,VisibilityMPH,Wind Direction,Wind SpeedMPH,Gust SpeedMPH,PrecipitationIn,Events,Conditions,WindDirDegrees,DateUTC
12:15 AM,26.6,25.5,96,30.27,10.0,Calm,Calm,-,N/A,,Clear,0,2012-10-07 06:15:00
12:35 AM,25.9,24.6,95,30.26,10.0,Calm,Calm,-,N/A,,Clear,0,2012-10-07 06:35:00
12:55 AM,26.1,25.2,96,30.26,10.0,Calm,Calm,-,N/A,,Clear,0,2012-10-07 06:55:00
1:15 AM,25.5,24.6,96,30.25,10.0,Calm,Calm,-,N/A,,Clear,0,2012-10-07 07:15:00
1:35 AM,25.9,25.3,98,30.24,10.0,Calm,Calm,-,N/A,,Clear,0,2012-10-07 07:35:00
1:55 AM,25.7,24.8,96,30.24,10.0,Calm,Calm,-,N/A,,Clear,0,2012-10-07 07:55:00
2:15 AM,25.9,25.2,97,30.23,10.0,Calm,Calm,-,N/A,,Clear,0,2012-10-07 08:15:00
2:35 AM,23.0,21.6,94,30.23,10.0,Calm,Calm,-,N/A,,Clear,0,2012-10-07 08:35:00
2:55 AM,24.4,23.5,96,30.22,10.0,Calm,Calm,-,N/A,,Clear,0,2012-10-07 08:55:00
3:15 AM,25.2,24.3,96,30.21,10.0,Calm,Calm,-,N/A,,Clear,0,2012-10-07 09:15:00
3:35 AM,23.4,21.9,94,30.21,10.0,Calm,Calm,-,N/A,,Clear,0,2012-10-07 09:35:00
3:55 AM,22.5,21.4,96,30.21,10.0,West,4.6,-,N/A,,Clear,270,2012-10-07 09:55:00
4:15 AM,22.5,20.8,93,30.20,10.0,Calm,Calm,-,N/A,,Clear,0,2012-10-07 10:15:00
4:35 AM,23.4,22.3,96,30.20,10.0,Calm,Calm,-,N/A,,Clear,0,2012-10-07 10:35:00
4:55 AM,21.4,19.8,93,30.20,10.0,Calm,Calm,-,N/A,,Clear,0,2012-10-07 10:55:00
5:15 AM,22.5,21.7,97,30.19,10.0,Calm,Calm,-,N/A,,Clear,0,2012-10-07 11:15:00
5:35 AM,21.6,20.5,96,30.19,10.0,Calm,Calm,-,N/A,,Clear,0,2012-10-07 11:35:00
5:55 AM,23.9,23.4,98,30.19,10.0,Calm,Calm,-,N/A,,Clear,0,2012-10-07 11:55:00
6:15 AM,23.2,22.5,97,30.19,10.0,Calm,Calm,-,N/A,,Clear,0,2012-10-07 12:15:00
6:35 AM,23.0,22.1,96,30.19,10.0,Calm,Calm,-,N/A,,Clear,0,2012-10-07 12:35:00
6:55 AM,22.1,21.6,98,30.19,3.0,West,4.6,-,N/A,,Clear,270,2012-10-07 12:55:00
7:15 AM,21.0,20.1,96,30.19,10.0,West,3.5,-,N/A,,Clear,260,2012-10-07 13:15:00
7:35 AM,23.4,22.6,97,30.19,10.0,West,4.6,-,N/A,,Clear,270,2012-10-07 13:35:00
7:55 AM,25.0,24.1,96,30.19,10.0,West,4.6,-,N/A,,Clear,260,2012-10-07 13:55:00
8:35 AM,29.1,28.2,96,30.20,10.0,West,5.8,-,N/A,,Clear,280,2012-10-07 14:35:00
8:55 AM,30.0,29.1,96,30.20,7.0,WSW,5.8,-,N/A,,Scattered Clouds,240,2012-10-07 14:55:00
9:15 AM,32.0,31.5,98,30.20,10.0,West,6.9,-,N/A,,Scattered Clouds,260,2012-10-07 15:15:00
9:35 AM,33.6,32.0,94,30.19,10.0,West,9.2,-,N/A,,Clear,270,2012-10-07 15:35:00
9:55 AM,35.2,32.0,88,30.19,10.0,West,9.2,-,N/A,,Clear,270,2012-10-07 15:55:00
10:15 AM,37.6,32.0,80,30.20,10.0,West,12.7,-,N/A,,Clear,270,2012-10-07 16:15:00
10:35 AM,39.9,32.2,74,30.19,10.0,West,9.2,-,N/A,,Clear,280,2012-10-07 16:35:00
10:55 AM,41.9,31.5,66,30.18,10.0,West,12.7,-,N/A,,Clear,260,2012-10-07 16:55:00
11:15 AM,44.4,30.0,57,30.17,10.0,WNW,9.2,-,N/A,,Clear,290,2012-10-07 17:15:00
11:35 AM,45.3,27.7,50,30.17,10.0,West,3.5,-,N/A,,Clear,280,2012-10-07 17:35:00
11:55 AM,46.4,28.0,49,30.17,10.0,SW,5.8,-,N/A,,Clear,230,2012-10-07 17:55:00
12:15 PM,48.9,22.8,36,30.15,10.0,WNW,9.2,-,N/A,,Clear,290,2012-10-07 18:15:00
12:35 PM,50.4,17.1,27,30.15,10.0,WNW,12.7,-,N/A,,Clear,290,2012-10-07 18:35:00
12:55 PM,51.6,14.9,23,30.13,10.0,WNW,9.2,-,N/A,,Clear,290,2012-10-07 18:55:00
1:35 PM,52.2,14.7,23,30.12,10.0,North,10.4,17.3,N/A,,Clear,350,2012-10-07 19:35:00
1:55 PM,52.7,16.9,24,30.11,10.0,NNW,6.9,-,N/A,,Clear,330,2012-10-07 19:55:00
2:15 PM,53.4,15.8,23,30.09,10.0,NNW,8.1,-,N/A,,Clear,340,2012-10-07 20:15:00
2:35 PM,54.3,15.3,21,30.08,10.0,NW,8.1,-,N/A,,Clear,310,2012-10-07 20:35:00
2:55 PM,54.3,14.9,21,30.08,10.0,WNW,4.6,-,N/A,,Clear,300,2012-10-07 20:55:00
3:15 PM,54.9,16.7,22,30.07,10.0,NW,10.4,-,N/A,,Clear,320,2012-10-07 21:15:00
3:35 PM,55.2,17.4,23,30.07,10.0,NNE,10.4,18.4,N/A,,Clear,30,2012-10-07 21:35:00
3:55 PM,55.6,15.3,20,30.06,10.0,NW,11.5,18.4,N/A,,Clear,320,2012-10-07 21:55:00
4:15 PM,55.8,16.0,21,30.06,10.0,NNW,10.4,17.3,N/A,,Clear,340,2012-10-07 22:15:00
4:35 PM,55.4,16.5,22,30.06,10.0,North,8.1,-,N/A,,Clear,350,2012-10-07 22:35:00
4:55 PM,54.7,16.3,22,30.05,10.0,North,6.9,-,N/A,,Clear,360,2012-10-07 22:55:00
5:15 PM,54.5,18.0,24,30.05,10.0,North,6.9,-,N/A,,Clear,350,2012-10-07 23:15:00
5:35 PM,53.8,18.0,24,30.04,10.0,NW,4.6,-,N/A,,Clear,310,2012-10-07 23:35:00
5:55 PM,52.0,20.7,29,30.04,10.0,NNW,5.8,-,N/A,,Clear,340,2012-10-07 23:55:00
6:15 PM,49.5,22.6,35,30.05,10.0,NNW,4.6,-,N/A,,Clear,340,2012-10-08 00:15:00
6:35 PM,49.3,20.3,32,30.05,10.0,Calm,Calm,-,N/A,,Clear,0,2012-10-08 00:35:00
6:55 PM,47.5,20.7,35,30.05,10.0,Calm,Calm,-,N/A,,Clear,0,2012-10-08 00:55:00
7:15 PM,43.7,23.2,44,30.05,10.0,Calm,Calm,-,N/A,,Clear,0,2012-10-08 01:15:00
7:35 PM,41.7,24.4,50,30.06,10.0,Calm,Calm,-,N/A,,Clear,0,2012-10-08 01:35:00
7:55 PM,45.5,21.0,38,30.07,10.0,Calm,Calm,-,N/A,,Clear,0,2012-10-08 01:55:00
8:15 PM,44.6,20.7,39,30.07,10.0,Calm,Calm,-,N/A,,Clear,0,2012-10-08 02:15:00
8:35 PM,43.5,19.6,38,30.07,10.0,Calm,Calm,-,N/A,,Clear,0,2012-10-08 02:35:00
8:55 PM,43.7,18.7,37,30.07,10.0,Calm,Calm,-,N/A,,Clear,0,2012-10-08 02:55:00
9:15 PM,42.6,18.5,38,30.07,10.0,WSW,3.5,-,N/A,,Clear,240,2012-10-08 03:15:00
9:35 PM,43.0,17.4,36,30.06,10.0,WSW,3.5,-,N/A,,Clear,240,2012-10-08 03:35:00
9:55 PM,39.7,19.9,45,30.06,10.0,WSW,4.6,-,N/A,,Clear,240,2012-10-08 03:55:00
10:15 PM,38.5,20.3,48,30.06,10.0,WSW,4.6,-,N/A,,Clear,250,2012-10-08 04:15:00
10:35 PM,34.9,21.7,59,30.06,10.0,West,6.9,-,N/A,,Clear,260,2012-10-08 04:35:00
10:55 PM,34.5,21.9,60,30.05,10.0,West,5.8,-,N/A,,Clear,270,2012-10-08 04:55:00
11:15 PM,32.7,21.9,64,30.04,10.0,West,5.8,-,N/A,,Clear,270,2012-10-08 05:15:00
11:35 PM,33.1,21.2,62,30.05,10.0,West,6.9,-,N/A,,Clear,270,2012-10-08 05:35:00
11:55 PM,31.6,22.1,68,30.04,10.0,West,8.1,-,N/A,,Clear,270,2012-10-08 05:55:00